Time,TemperatureF,DewpointF,PressureIn,WindDirection,WindDirectionDegrees,WindSpeedMPH,WindSpeedGustMPH,Humidity,HourlyPrecipIn,Conditions,Clouds,dailyrainin,SoftwareType,DateUTC
2013-06-22 00:00:00,69.9,62.0,30.11,NW,313,0.0,-999.0,76,-99.99,,,0.00,ADS-WS1 bash script,2013-06-22 04:00:00,
2013-06-22 00:05:00,69.9,62.0,30.12,WNW,299,0.0,-999.0,76,-99.99,,,0.00,ADS-WS1 bash script,2013-06-22 04:05:00,
2013-06-22 00:10:00,69.7,62.0,30.12,NW,313,0.0,-999.0,76,-99.99,,,0.00,ADS-WS1 bash script,2013-06-22 04:10:00,
2013-06-22 00:15:00,69.5,62.0,30.12,NW,313,0.0,-999.0,77,-99.99,,,0.00,ADS-WS1 bash script,2013-06-22 04:15:00,
2013-06-22 00:20:00,69.3,61.0,30.11,NW,313,0.0,-999.0,77,-99.99,,,0.00,ADS-WS1 bash script,2013-06-22 04:20:00,
2013-06-22 00:25:00,69.1,61.0,30.11,NW,313,0.0,-999.0,77,-99.99,,,0.00,ADS-WS1 bash script,2013-06-22 04:25:00,
2013-06-22 00:30:00,69.0,62.0,30.12,NW,313,0.0,-999.0,79,-99.99,,,0.00,ADS-WS1 bash script,2013-06-22 04:30:00,
2013-06-22 00:35:00,69.0,62.0,30.12,NW,313,0.0,-999.0,79,-99.99,,,0.00,ADS-WS1 bash script,2013-06-22 04:35:00,
2013-06-22 00:40:00,68.8,62.0,30.11,NW,313,0.0,-999.0,80,-99.99,,,0.00,ADS-WS1 bash script,2013-06-22 04:40:00,
2013-06-22 00:45:00,68.8,62.0,30.11,NW,313,0.0,-999.0,78,-99.99,,,0.00,ADS-WS1 bash script,2013-06-22 04:45:00,
2013-06-22 00:50:00,68.6,62.0,30.11,NW,313,0.0,-999.0,79,-99.99,,,0.00,ADS-WS1 bash script,2013-06-22 04:50:00,
2013-06-22 00:55:00,68.6,62.0,30.11,NW,313,0.0,-999.0,78,-99.99,,,0.00,ADS-WS1 bash script,2013-06-22 04:55:00,
2013-06-22 01:00:00,68.4,61.0,30.11,NW,304,0.0,-999.0,78,-99.99,,,0.00,ADS-WS1 bash script,2013-06-22 05:00:00,
2013-06-22 01:05:00,68.4,61.0,30.11,NW,313,0.0,-999.0,79,-99.99,,,0.00,ADS-WS1 bash script,2013-06-22 05:05:00,
2013-06-22 01:10:00,68.4,61.0,30.10,South,179,0.0,-999.0,78,-99.99,,,0.00,ADS-WS1 bash script,2013-06-22 05:10:00,
2013-06-22 01:15:00,68.2,60.0,30.10,West,268,0.0,-999.0,77,-99.99,,,0.00,ADS-WS1 bash script,2013-06-22 05:15:00,
2013-06-22 01:20:00,68.4,60.0,30.10,West,268,1.0,-999.0,76,-99.99,,,0.00,ADS-WS1 bash script,2013-06-22 05:20:00,
2013-06-22 01:25:00,68.4,60.0,30.10,West,261,0.0,-999.0,76,-99.99,,,0.00,ADS-WS1 bash script,2013-06-22 05:25:00,
2013-06-22 01:30:00,68.6,60.0,30.10,SSW,211,0.0,-999.0,74,-99.99,,,0.00,ADS-WS1 bash script,2013-06-22 05:30:00,
2013-06-22 01:35:00,68.6,60.0,30.10,West,268,0.0,-999.0,75,-99.99,,,0.00,ADS-WS1 bash script,2013-06-22 05:35:00,
2013-06-22 01:40:00,68.6,60.0,30.10,NW,309,0.0,-999.0,74,-99.99,,,0.00,ADS-WS1 bash script,2013-06-22 05:40:00,
2013-06-22 01:50:00,68.6,60.0,30.10,South,179,0.0,-999.0,73,-99.99,,,0.00,ADS-WS1 bash script,2013-06-22 05:50:00,
2013-06-22 01:55:00,68.8,59.0,30.09,South,179,1.0,-999.0,72,-99.99,,,0.00,ADS-WS1 bash script,2013-06-22 05:55:00,
2013-06-22 02:00:00,68.8,59.0,30.10,West,268,0.0,-999.0,71,-99.99,,,0.00,ADS-WS1 bash script,2013-06-22 06:00:00,
2013-06-22 02:05:00,68.8,59.0,30.10,SSW,210,0.0,-999.0,72,-99.99,,,0.00,ADS-WS1 bash script,2013-06-22 06:05:00,
2013-06-22 02:10:00,68.6,60.0,30.10,West,268,0.0,-999.0,73,-99.99,,,0.00,ADS-WS1 bash script,2013-06-22 06:10:00,
2013-06-22 02:15:00,68.6,59.0,30.09,West,268,0.0,-999.0,72,-99.99,,,0.00,ADS-WS1 bash script,2013-06-22 06:15:00,
2013-06-22 02:20:00,68.6,59.0,30.09,NW,313,0.0,-999.0,72,-99.99,,,0.00,ADS-WS1 bash script,2013-06-22 06:20:00,
2013-06-22 02:30:00,68.4,59.0,30.09,West,268,0.0,-999.0,73,-99.99,,,0.00,ADS-WS1 bash script,2013-06-22 06:30:00,
2013-06-22 02:35:00,68.2,59.0,30.09,West,268,0.0,-999.0,73,-99.99,,,0.00,ADS-WS1 bash script,2013-06-22 06:35:00,
2013-06-22 02:40:00,68.2,59.0,30.09,South,179,0.0,-999.0,73,-99.99,,,0.00,ADS-WS1 bash script,2013-06-22 06:40:00,
2013-06-22 02:45:00,68.2,59.0,30.09,NW,313,0.0,-999.0,73,-99.99,,,0.00,ADS-WS1 bash script,2013-06-22 06:45:00,
2013-06-22 02:50:00,68.2,59.0,30.09,West,268,0.0,-999.0,73,-99.99,,,0.00,ADS-WS1 bash script,2013-06-22 06:50:00,
2013-06-22 02:55:00,68.2,59.0,30.09,NNE,23,0.0,-999.0,73,-99.99,,,0.00,ADS-WS1 bash script,2013-06-22 06:55:00,
2013-06-22 03:00:00,68.4,59.0,30.09,SW,225,0.0,-999.0,74,-99.99,,,0.00,ADS-WS1 bash script,2013-06-22 07:00:00,
2013-06-22 03:05:00,68.8,60.0,30.09,South,183,0.0,-999.0,73,-99.99,,,0.00,ADS-WS1 bash script,2013-06-22 07:05:00,
2013-06-22 03:10:00,69.0,60.0,30.08,West,268,0.0,-999.0,73,-99.99,,,0.00,ADS-WS1 bash script,2013-06-22 07:10:00,
2013-06-22 03:15:00,69.1,59.0,30.08,SW,224,0.0,-999.0,72,-99.99,,,0.00,ADS-WS1 bash script,2013-06-22 07:15:00,
2013-06-22 03:20:00,69.5,60.0,30.07,West,268,2.0,-999.0,72,-99.99,,,0.00,ADS-WS1 bash script,2013-06-22 07:20:00,
2013-06-22 03:25:00,69.9,60.0,30.07,West,268,1.0,-999.0,72,-99.99,,,0.00,ADS-WS1 bash script,2013-06-22 07:25:00,
2013-06-22 03:30:00,69.9,60.0,30.07,WNW,290,0.0,-999.0,72,-99.99,,,0.00,ADS-WS1 bash script,2013-06-22 07:30:00,
2013-06-22 03:35:00,70.0,60.0,30.06,SW,224,2.0,-999.0,72,-99.99,,,0.00,ADS-WS1 bash script,2013-06-22 07:35:00,
2013-06-22 03:40:00,70.0,60.0,30.06,WSW,251,2.0,-999.0,72,-99.99,,,0.00,ADS-WS1 bash script,2013-06-22 07:40:00,
2013-06-22 03:50:00,70.0,60.0,30.06,West,268,1.0,-999.0,71,-99.99,,,0.00,ADS-WS1 bash script,2013-06-22 07:50:00,
2013-06-22 03:55:00,70.2,60.0,30.06,South,179,1.0,-999.0,72,-99.99,,,0.00,ADS-WS1 bash script,2013-06-22 07:55:00,
2013-06-22 04:00:00,70.2,60.0,30.07,NW,313,1.0,-999.0,72,-99.99,,,0.00,ADS-WS1 bash script,2013-06-22 08:00:00,
2013-06-22 04:10:00,70.4,61.0,30.06,SW,224,2.0,-999.0,73,-99.99,,,0.00,ADS-WS1 bash script,2013-06-22 08:10:00,
2013-06-22 04:20:00,70.6,61.0,30.06,South,179,2.0,-999.0,72,-99.99,,,0.00,ADS-WS1 bash script,2013-06-22 08:20:00,
2013-06-22 04:25:00,70.9,61.0,30.06,NNW,328,0.0,-999.0,72,-99.99,,,0.00,ADS-WS1 bash script,2013-06-22 08:25:00,
2013-06-22 04:30:00,70.9,61.0,30.06,South,179,2.0,-999.0,72,-99.99,,,0.00,ADS-WS1 bash script,2013-06-22 08:30:00,
2013-06-22 04:35:00,71.1,61.0,30.06,WNW,299,1.0,-999.0,72,-99.99,,,0.00,ADS-WS1 bash script,2013-06-22 08:35:00,
2013-06-22 04:40:00,71.3,61.0,30.06,NNW,335,2.0,-999.0,72,-99.99,,,0.00,ADS-WS1 bash script,2013-06-22 08:40:00,
2013-06-22 04:50:00,71.5,62.0,30.06,SW,231,1.0,-999.0,72,-99.99,,,0.00,ADS-WS1 bash script,2013-06-22 08:50:00,
2013-06-22 04:55:00,71.7,62.0,30.05,WNW,283,3.0,-999.0,72,-99.99,,,0.00,ADS-WS1 bash script,2013-06-22 08:55:00,
2013-06-22 05:00:00,71.7,62.0,30.05,ESE,111,4.0,-999.0,72,-99.99,,,0.00,ADS-WS1 bash script,2013-06-22 09:00:00,
2013-06-22 05:05:00,71.5,63.0,30.05,SSW,200,1.0,-999.0,73,-99.99,,,0.00,ADS-WS1 bash script,2013-06-22 09:05:00,
2013-06-22 05:10:00,71.5,63.0,30.04,West,262,0.0,-999.0,73,-99.99,,,0.00,ADS-WS1 bash script,2013-06-22 09:10:00,
2013-06-22 05:20:00,71.1,62.0,30.05,NW,313,0.0,-999.0,73,-99.99,,,0.00,ADS-WS1 bash script,2013-06-22 09:20:00,
2013-06-22 05:25:00,70.9,62.0,30.04,South,179,2.0,-999.0,74,-99.99,,,0.00,ADS-WS1 bash script,2013-06-22 09:25:00,
2013-06-22 05:30:00,70.8,62.0,30.05,SW,224,1.0,-999.0,75,-99.99,,,0.00,ADS-WS1 bash script,2013-06-22 09:30:00,
2013-06-22 05:35:00,70.8,62.0,30.05,SW,234,0.0,-999.0,75,-99.99,,,0.00,ADS-WS1 bash script,2013-06-22 09:35:00,
2013-06-22 05:40:00,70.6,62.0,30.05,East,98,1.0,-999.0,75,-99.99,,,0.00,ADS-WS1 bash script,2013-06-22 09:40:00,
2013-06-22 05:50:00,70.8,62.0,30.06,South,190,3.0,-999.0,75,-99.99,,,0.00,ADS-WS1 bash script,2013-06-22 09:50:00,
2013-06-22 06:00:00,70.6,63.0,30.06,WSW,238,1.0,-999.0,76,-99.99,,,0.00,ADS-WS1 bash script,2013-06-22 10:00:00,
2013-06-22 06:05:00,70.6,63.0,30.06,NW,313,0.0,-999.0,76,-99.99,,,0.00,ADS-WS1 bash script,2013-06-22 10:05:00,
2013-06-22 06:10:00,70.6,63.0,30.07,West,268,1.0,-999.0,76,-99.99,,,0.00,ADS-WS1 bash script,2013-06-22 10:10:00,
2013-06-22 06:15:00,70.4,62.0,30.06,WSW,239,1.0,-999.0,76,-99.99,,,0.00,ADS-WS1 bash script,2013-06-22 10:15:00,
2013-06-22 06:20:00,70.2,62.0,30.07,WNW,299,0.0,-999.0,77,-99.99,,,0.00,ADS-WS1 bash script,2013-06-22 10:20:00,
2013-06-22 06:25:00,70.2,62.0,30.07,SW,224,0.0,-999.0,77,-99.99,,,0.00,ADS-WS1 bash script,2013-06-22 10:25:00,
2013-06-22 06:30:00,70.0,63.0,30.06,West,261,1.0,-999.0,78,-99.99,,,0.00,ADS-WS1 bash script,2013-06-22 10:30:00,
2013-06-22 06:35:00,70.4,62.0,30.07,West,278,1.0,-999.0,77,-99.99,,,0.00,ADS-WS1 bash script,2013-06-22 10:35:00,
2013-06-22 06:40:00,70.6,63.0,30.07,West,268,1.0,-999.0,77,-99.99,,,0.00,ADS-WS1 bash script,2013-06-22 10:40:00,
2013-06-22 06:45:00,70.6,63.0,30.07,SW,224,1.0,-999.0,77,-99.99,,,0.00,ADS-WS1 bash script,2013-06-22 10:45:00,
2013-06-22 06:50:00,70.6,64.0,30.07,WSW,245,1.0,-999.0,78,-99.99,,,0.00,ADS-WS1 bash script,2013-06-22 10:50:00,
2013-06-22 06:55:00,70.6,64.0,30.06,SE,134,3.0,-999.0,78,-99.99,,,0.00,ADS-WS1 bash script,2013-06-22 10:55:00,
2013-06-22 07:00:00,70.8,64.0,30.07,West,268,3.0,-999.0,78,-99.99,,,0.00,ADS-WS1 bash script,2013-06-22 11:00:00,
2013-06-22 07:10:00,71.1,63.0,30.07,SW,224,0.0,-999.0,77,-99.99,,,0.00,ADS-WS1 bash script,2013-06-22 11:10:00,
2013-06-22 07:15:00,71.3,63.0,30.07,NNE,29,0.0,-999.0,77,-99.99,,,0.00,ADS-WS1 bash script,2013-06-22 11:15:00,
2013-06-22 07:20:00,71.3,63.0,30.08,SSW,211,2.0,-999.0,77,-99.99,,,0.00,ADS-WS1 bash script,2013-06-22 11:20:00,
2013-06-22 07:25:00,71.5,64.0,30.07,NW,313,0.0,-999.0,76,-99.99,,,0.00,ADS-WS1 bash script,2013-06-22 11:25:00,
2013-06-22 07:30:00,71.8,64.0,30.07,WSW,254,2.0,-999.0,76,-99.99,,,0.00,ADS-WS1 bash script,2013-06-22 11:30:00,
2013-06-22 07:35:00,72.0,64.0,30.07,WSW,245,3.0,-999.0,76,-99.99,,,0.00,ADS-WS1 bash script,2013-06-22 11:35:00,
2013-06-22 07:40:00,72.4,63.0,30.07,NW,313,1.0,-999.0,75,-99.99,,,0.00,ADS-WS1 bash script,2013-06-22 11:40:00,
2013-06-22 07:45:00,72.6,64.0,30.08,West,272,3.0,-999.0,75,-99.99,,,0.00,ADS-WS1 bash script,2013-06-22 11:45:00,
2013-06-22 07:50:00,72.9,64.0,30.08,NW,313,1.0,-999.0,75,-99.99,,,0.00,ADS-WS1 bash script,2013-06-22 11:50:00,
2013-06-22 07:55:00,73.3,65.0,30.08,SW,224,2.0,-999.0,76,-99.99,,,0.00,ADS-WS1 bash script,2013-06-22 11:55:00,
2013-06-22 08:00:00,73.5,65.0,30.08,WSW,256,0.0,-999.0,74,-99.99,,,0.00,ADS-WS1 bash script,2013-06-22 12:00:00,
2013-06-22 08:05:00,73.6,65.0,30.08,WNW,299,0.0,-999.0,73,-99.99,,,0.00,ADS-WS1 bash script,2013-06-22 12:05:00,
2013-06-22 08:10:00,74.0,65.0,30.08,WNW,290,1.0,-999.0,75,-99.99,,,0.00,ADS-WS1 bash script,2013-06-22 12:10:00,
2013-06-22 08:20:00,74.4,65.0,30.08,WSW,245,6.0,-999.0,73,-99.99,,,0.00,ADS-WS1 bash script,2013-06-22 12:20:00,
2013-06-22 08:25:00,74.5,65.0,30.08,SW,234,5.0,-999.0,73,-99.99,,,0.00,ADS-WS1 bash script,2013-06-22 12:25:00,
2013-06-22 08:30:00,74.7,66.0,30.08,West,268,1.0,-999.0,74,-99.99,,,0.00,ADS-WS1 bash script,2013-06-22 12:30:00,
2013-06-22 08:35:00,74.9,65.0,30.09,SW,224,2.0,-999.0,72,-99.99,,,0.00,ADS-WS1 bash script,2013-06-22 12:35:00,
2013-06-22 08:40:00,74.9,66.0,30.08,WSW,237,5.0,-999.0,73,-99.99,,,0.00,ADS-WS1 bash script,2013-06-22 12:40:00,
2013-06-22 08:50:00,75.4,66.0,30.08,SE,134,1.0,-999.0,73,-99.99,,,0.00,ADS-WS1 bash script,2013-06-22 12:50:00,
2013-06-22 08:55:00,75.4,65.0,30.08,West,268,3.0,-999.0,72,-99.99,,,0.00,ADS-WS1 bash script,2013-06-22 12:55:00,
2013-06-22 09:00:00,75.4,66.0,30.08,West,268,5.0,-999.0,73,-99.99,,,0.00,ADS-WS1 bash script,2013-06-22 13:00:00,
2013-06-22 09:05:00,75.6,67.0,30.09,West,268,0.0,-999.0,74,-99.99,,,0.00,ADS-WS1 bash script,2013-06-22 13:05:00,
2013-06-22 09:10:00,75.8,67.0,30.09,West,259,3.0,-999.0,73,-99.99,,,0.00,ADS-WS1 bash script,2013-06-22 13:10:00,
2013-06-22 09:20:00,76.5,67.0,30.09,NNE,29,2.0,-999.0,74,-99.99,,,0.00,ADS-WS1 bash script,2013-06-22 13:20:00,
2013-06-22 09:25:00,77.2,68.0,30.09,NW,313,1.0,-999.0,74,-99.99,,,0.00,ADS-WS1 bash script,2013-06-22 13:25:00,
2013-06-22 09:30:00,77.4,67.0,30.09,SW,215,3.0,-999.0,71,-99.99,,,0.00,ADS-WS1 bash script,2013-06-22 13:30:00,
2013-06-22 09:35:00,78.0,68.0,30.09,WNW,299,0.0,-999.0,72,-99.99,,,0.00,ADS-WS1 bash script,2013-06-22 13:35:00,
2013-06-22 09:45:00,79.6,69.0,30.09,SW,234,5.0,-999.0,69,-99.99,,,0.00,ADS-WS1 bash script,2013-06-22 13:45:00,
2013-06-22 09:50:00,80.1,70.0,30.09,West,268,3.0,-999.0,70,-99.99,,,0.00,ADS-WS1 bash script,2013-06-22 13:50:00,
2013-06-22 10:00:00,80.6,71.0,30.10,West,279,0.0,-999.0,70,-99.99,,,0.00,ADS-WS1 bash script,2013-06-22 14:00:00,
2013-06-22 10:05:00,80.6,70.0,30.10,West,262,2.0,-999.0,68,-99.99,,,0.00,ADS-WS1 bash script,2013-06-22 14:05:00,
2013-06-22 10:10:00,80.8,70.0,30.09,SW,234,4.0,-999.0,68,-99.99,,,0.00,ADS-WS1 bash script,2013-06-22 14:10:00,
2013-06-22 10:15:00,82.1,72.0,30.09,SSE,156,5.0,-999.0,70,-99.99,,,0.00,ADS-WS1 bash script,2013-06-22 14:15:00,
2013-06-22 10:20:00,81.9,71.0,30.09,WSW,241,3.0,-999.0,68,-99.99,,,0.00,ADS-WS1 bash script,2013-06-22 14:20:00,
2013-06-22 10:25:00,81.7,70.0,30.09,SW,231,1.0,-999.0,66,-99.99,,,0.00,ADS-WS1 bash script,2013-06-22 14:25:00,
2013-06-22 10:30:00,82.1,70.0,30.09,NW,304,5.0,-999.0,66,-99.99,,,0.00,ADS-WS1 bash script,2013-06-22 14:30:00,
2013-06-22 10:35:00,83.3,71.0,30.09,WNW,302,4.0,-999.0,66,-99.99,,,0.00,ADS-WS1 bash script,2013-06-22 14:35:00,
2013-06-22 10:40:00,83.3,71.0,30.10,WNW,302,4.0,-999.0,66,-99.99,,,0.00,ADS-WS1 bash script,2013-06-22 14:40:00,
2013-06-22 10:45:00,82.4,70.0,30.09,West,279,5.0,-999.0,65,-99.99,,,0.00,ADS-WS1 bash script,2013-06-22 14:45:00,
2013-06-22 10:55:00,84.2,73.0,30.09,SW,224,3.0,-999.0,67,-99.99,,,0.00,ADS-WS1 bash script,2013-06-22 14:55:00,
2013-06-22 11:00:00,85.3,73.0,30.09,WNW,302,0.0,-999.0,64,-99.99,,,0.00,ADS-WS1 bash script,2013-06-22 15:00:00,
2013-06-22 11:10:00,84.8,73.0,30.09,NW,313,3.0,-999.0,64,-99.99,,,0.00,ADS-WS1 bash script,2013-06-22 15:10:00,
2013-06-22 11:15:00,84.6,73.0,30.08,WNW,302,5.0,-999.0,64,-99.99,,,0.00,ADS-WS1 bash script,2013-06-22 15:15:00,
2013-06-22 11:20:00,84.6,73.0,30.08,NW,324,3.0,-999.0,65,-99.99,,,0.00,ADS-WS1 bash script,2013-06-22 15:20:00,
2013-06-22 11:25:00,84.4,72.0,30.08,NW,319,1.0,-999.0,65,-99.99,,,0.00,ADS-WS1 bash script,2013-06-22 15:25:00,
2013-06-22 11:30:00,85.1,73.0,30.09,SW,228,2.0,-999.0,65,-99.99,,,0.00,ADS-WS1 bash script,2013-06-22 15:30:00,
2013-06-22 11:35:00,85.0,73.0,30.08,West,268,2.0,-999.0,65,-99.99,,,0.00,ADS-WS1 bash script,2013-06-22 15:35:00,
2013-06-22 11:40:00,85.1,73.0,30.08,WNW,296,4.0,-999.0,65,-99.99,,,0.00,ADS-WS1 bash script,2013-06-22 15:40:00,
2013-06-22 11:45:00,85.9,73.0,30.09,West,279,4.0,-999.0,63,-99.99,,,0.00,ADS-WS1 bash script,2013-06-22 15:45:00,
2013-06-22 11:50:00,86.0,74.0,30.09,NW,309,4.0,-999.0,64,-99.99,,,0.00,ADS-WS1 bash script,2013-06-22 15:50:00,
2013-06-22 11:55:00,86.2,72.0,30.09,West,268,3.0,-999.0,61,-99.99,,,0.00,ADS-WS1 bash script,2013-06-22 15:55:00,
2013-06-22 12:00:00,85.3,72.0,30.09,NW,313,5.0,-999.0,63,-99.99,,,0.00,ADS-WS1 bash script,2013-06-22 16:00:00,
2013-06-22 12:10:00,85.0,73.0,30.09,West,278,2.0,-999.0,65,-99.99,,,0.00,ADS-WS1 bash script,2013-06-22 16:10:00,
2013-06-22 12:20:00,84.8,73.0,30.09,NW,317,2.0,-999.0,66,-99.99,,,0.00,ADS-WS1 bash script,2013-06-22 16:20:00,
2013-06-22 12:25:00,84.1,72.0,30.10,WNW,299,2.0,-999.0,65,-99.99,,,0.00,ADS-WS1 bash script,2013-06-22 16:25:00,
2013-06-22 12:30:00,83.7,73.0,30.10,WSW,245,2.0,-999.0,67,-99.99,,,0.00,ADS-WS1 bash script,2013-06-22 16:30:00,
2013-06-22 12:35:00,83.5,73.0,30.10,NNE,31,3.0,-999.0,68,-99.99,,,0.00,ADS-WS1 bash script,2013-06-22 16:35:00,
2013-06-22 12:45:00,83.9,73.0,30.10,NE,43,1.0,-999.0,69,-99.99,,,0.00,ADS-WS1 bash script,2013-06-22 16:45:00,
2013-06-22 12:50:00,83.7,73.0,30.09,NW,313,3.0,-999.0,68,-99.99,,,0.00,ADS-WS1 bash script,2013-06-22 16:50:00,
2013-06-22 12:55:00,83.7,73.0,30.10,North,0,1.0,-999.0,69,-99.99,,,0.00,ADS-WS1 bash script,2013-06-22 16:55:00,
2013-06-22 13:05:00,83.9,73.0,30.09,North,0,2.0,-999.0,67,-99.99,,,0.00,ADS-WS1 bash script,2013-06-22 17:05:00,
2013-06-22 13:10:00,84.1,73.0,30.09,NE,55,3.0,-999.0,68,-99.99,,,0.00,ADS-WS1 bash script,2013-06-22 17:10:00,
2013-06-22 13:20:00,84.2,72.0,30.09,NNW,333,2.0,-999.0,66,-99.99,,,0.00,ADS-WS1 bash script,2013-06-22 17:20:00,
2013-06-22 13:25:00,84.2,72.0,30.08,NNE,12,2.0,-999.0,66,-99.99,,,0.00,ADS-WS1 bash script,2013-06-22 17:25:00,
2013-06-22 13:35:00,85.5,74.0,30.09,NW,326,2.0,-999.0,65,-99.99,,,0.00,ADS-WS1 bash script,2013-06-22 17:35:00,
2013-06-22 13:40:00,86.8,75.0,30.08,West,268,4.0,-999.0,64,-99.99,,,0.00,ADS-WS1 bash script,2013-06-22 17:40:00,
2013-06-22 13:45:00,87.5,77.0,30.07,SW,224,2.0,-999.0,67,-99.99,,,0.00,ADS-WS1 bash script,2013-06-22 17:45:00,
2013-06-22 13:55:00,87.3,74.0,30.07,SE,139,2.0,-999.0,63,-99.99,,,0.00,ADS-WS1 bash script,2013-06-22 17:55:00,
2013-06-22 14:00:00,87.5,76.0,30.07,WNW,290,0.0,-999.0,64,-99.99,,,0.00,ADS-WS1 bash script,2013-06-22 18:00:00,
2013-06-22 14:05:00,87.8,75.0,30.07,WNW,283,1.0,-999.0,62,-99.99,,,0.00,ADS-WS1 bash script,2013-06-22 18:05:00,
2013-06-22 14:10:00,86.9,74.0,30.07,West,268,2.0,-999.0,63,-99.99,,,0.00,ADS-WS1 bash script,2013-06-22 18:10:00,
2013-06-22 14:15:00,87.3,75.0,30.07,West,268,4.0,-999.0,65,-99.99,,,0.00,ADS-WS1 bash script,2013-06-22 18:15:00,
2013-06-22 14:20:00,87.7,76.0,30.07,West,268,1.0,-999.0,64,-99.99,,,0.00,ADS-WS1 bash script,2013-06-22 18:20:00,
2013-06-22 14:25:00,88.6,76.0,30.07,SE,134,1.0,-999.0,63,-99.99,,,0.00,ADS-WS1 bash script,2013-06-22 18:25:00,
2013-06-22 14:30:00,89.1,75.0,30.07,West,268,2.0,-999.0,61,-99.99,,,0.00,ADS-WS1 bash script,2013-06-22 18:30:00,
2013-06-22 14:40:00,87.8,75.0,30.07,West,268,4.0,-999.0,62,-99.99,,,0.00,ADS-WS1 bash script,2013-06-22 18:40:00,
2013-06-22 14:50:00,87.8,76.0,30.06,West,268,1.0,-999.0,64,-99.99,,,0.00,ADS-WS1 bash script,2013-06-22 18:50:00,
2013-06-22 14:55:00,86.9,75.0,30.06,South,179,1.0,-999.0,64,-99.99,,,0.00,ADS-WS1 bash script,2013-06-22 18:55:00,
2013-06-22 15:00:00,86.2,74.0,30.06,West,268,2.0,-999.0,66,-99.99,,,0.00,ADS-WS1 bash script,2013-06-22 19:00:00,
2013-06-22 15:05:00,86.2,74.0,30.05,West,268,2.0,-999.0,66,-99.99,,,0.00,ADS-WS1 bash script,2013-06-22 19:05:00,
2013-06-22 15:10:00,86.8,75.0,30.05,WSW,251,2.0,-999.0,65,-99.99,,,0.00,ADS-WS1 bash script,2013-06-22 19:10:00,
2013-06-22 15:20:00,88.2,76.0,30.05,ENE,66,1.0,-999.0,65,-99.99,,,0.00,ADS-WS1 bash script,2013-06-22 19:20:00,
2013-06-22 15:25:00,88.2,75.0,30.05,NE,43,1.0,-999.0,62,-99.99,,,0.00,ADS-WS1 bash script,2013-06-22 19:25:00,
2013-06-22 15:30:00,89.6,76.0,30.04,NNW,335,0.0,-999.0,61,-99.99,,,0.00,ADS-WS1 bash script,2013-06-22 19:30:00,
2013-06-22 15:35:00,89.1,75.0,30.04,NNE,21,2.0,-999.0,60,-99.99,,,0.00,ADS-WS1 bash script,2013-06-22 19:35:00,
2013-06-22 15:40:00,88.4,75.0,30.04,NNW,335,0.0,-999.0,62,-99.99,,,0.00,ADS-WS1 bash script,2013-06-22 19:40:00,
2013-06-22 15:45:00,87.7,75.0,30.04,West,268,3.0,-999.0,63,-99.99,,,0.00,ADS-WS1 bash script,2013-06-22 19:45:00,
2013-06-22 15:50:00,87.1,74.0,30.04,West,279,2.0,-999.0,63,-99.99,,,0.00,ADS-WS1 bash script,2013-06-22 19:50:00,
2013-06-22 15:55:00,86.9,75.0,30.04,WNW,290,3.0,-999.0,64,-99.99,,,0.00,ADS-WS1 bash script,2013-06-22 19:55:00,
2013-06-22 16:00:00,86.6,75.0,30.02,NW,313,1.0,-999.0,66,-99.99,,,0.00,ADS-WS1 bash script,2013-06-22 20:00:00,
2013-06-22 16:05:00,86.2,74.0,30.02,North,350,0.0,-999.0,66,-99.99,,,1.00,ADS-WS1 bash script,2013-06-22 20:05:00,
2013-06-22 16:10:00,85.0,73.0,30.04,South,179,2.0,-999.0,64,-99.99,,,1.00,ADS-WS1 bash script,2013-06-22 20:10:00,
2013-06-22 16:15:00,83.5,69.0,30.04,East,88,2.0,-999.0,58,-99.99,,,1.00,ADS-WS1 bash script,2013-06-22 20:15:00,
2013-06-22 16:20:00,82.4,72.0,30.03,NE,47,2.0,-999.0,70,-99.99,,,1.00,ADS-WS1 bash script,2013-06-22 20:20:00,
2013-06-22 16:30:00,81.7,73.0,30.03,East,98,1.0,-999.0,74,-99.99,,,1.00,ADS-WS1 bash script,2013-06-22 20:30:00,
2013-06-22 16:40:00,79.9,72.0,30.02,East,101,3.0,-999.0,77,-99.99,,,2.00,ADS-WS1 bash script,2013-06-22 20:40:00,
2013-06-22 16:50:00,78.1,70.0,30.04,SSE,149,5.0,-999.0,76,-99.99,,,2.00,ADS-WS1 bash script,2013-06-22 20:50:00,
2013-06-22 16:55:00,77.8,70.0,30.04,South,190,7.0,-999.0,76,-99.99,,,2.00,ADS-WS1 bash script,2013-06-22 20:55:00,
2013-06-22 17:00:00,77.4,70.0,30.03,SE,134,5.0,-999.0,78,-99.99,,,2.00,ADS-WS1 bash script,2013-06-22 21:00:00,
2013-06-22 17:05:00,76.7,70.0,30.04,SE,134,9.0,-999.0,80,-99.99,,,2.00,ADS-WS1 bash script,2013-06-22 21:05:00,
2013-06-22 17:10:00,76.5,70.0,30.04,East,80,0.0,-999.0,81,-99.99,,,2.00,ADS-WS1 bash script,2013-06-22 21:10:00,
2013-06-22 17:15:00,76.5,70.0,30.03,NW,313,2.0,-999.0,82,-99.99,,,2.00,ADS-WS1 bash script,2013-06-22 21:15:00,
2013-06-22 17:20:00,76.2,70.0,30.04,WSW,239,4.0,-999.0,82,-99.99,,,2.00,ADS-WS1 bash script,2013-06-22 21:20:00,
2013-06-22 17:25:00,75.8,70.0,30.03,SE,134,3.0,-999.0,83,-99.99,,,2.00,ADS-WS1 bash script,2013-06-22 21:25:00,
2013-06-22 17:30:00,75.8,70.0,30.04,NE,43,1.0,-999.0,83,-99.99,,,2.00,ADS-WS1 bash script,2013-06-22 21:30:00,
2013-06-22 17:35:00,75.4,69.0,30.05,NW,313,0.0,-999.0,83,-99.99,,,2.00,ADS-WS1 bash script,2013-06-22 21:35:00,
2013-06-22 17:40:00,75.1,69.0,30.05,WSW,256,3.0,-999.0,83,-99.99,,,2.00,ADS-WS1 bash script,2013-06-22 21:40:00,
2013-06-22 17:45:00,75.1,70.0,30.06,WNW,302,1.0,-999.0,84,-99.99,,,2.00,ADS-WS1 bash script,2013-06-22 21:45:00,
2013-06-22 17:50:00,74.7,70.0,30.06,SW,217,4.0,-999.0,84,-99.99,,,2.00,ADS-WS1 bash script,2013-06-22 21:50:00,
2013-06-22 17:55:00,74.7,70.0,30.06,NW,313,2.0,-999.0,84,-99.99,,,2.00,ADS-WS1 bash script,2013-06-22 21:55:00,
2013-06-22 18:00:00,74.9,69.0,30.05,West,268,0.0,-999.0,82,-99.99,,,2.00,ADS-WS1 bash script,2013-06-22 22:00:00,
2013-06-22 18:05:00,74.7,69.0,30.04,SSW,211,1.0,-999.0,82,-99.99,,,2.00,ADS-WS1 bash script,2013-06-22 22:05:00,
2013-06-22 18:10:00,74.9,68.0,30.04,West,275,0.0,-999.0,80,-99.99,,,2.00,ADS-WS1 bash script,2013-06-22 22:10:00,
2013-06-22 18:15:00,74.9,69.0,30.04,West,268,1.0,-999.0,81,-99.99,,,2.00,ADS-WS1 bash script,2013-06-22 22:15:00,
2013-06-22 18:20:00,74.5,68.0,30.04,SSW,197,4.0,-999.0,82,-99.99,,,2.00,ADS-WS1 bash script,2013-06-22 22:20:00,
2013-06-22 18:25:00,74.4,68.0,30.04,WNW,296,1.0,-999.0,82,-99.99,,,2.00,ADS-WS1 bash script,2013-06-22 22:25:00,
2013-06-22 18:30:00,74.4,68.0,30.04,West,268,2.0,-999.0,83,-99.99,,,2.00,ADS-WS1 bash script,2013-06-22 22:30:00,
2013-06-22 18:35:00,74.4,68.0,30.03,WSW,256,0.0,-999.0,83,-99.99,,,2.00,ADS-WS1 bash script,2013-06-22 22:35:00,
2013-06-22 18:40:00,74.4,68.0,30.03,NW,306,0.0,-999.0,83,-99.99,,,2.00,ADS-WS1 bash script,2013-06-22 22:40:00,
2013-06-22 18:45:00,74.4,68.0,30.03,WSW,245,1.0,-999.0,83,-99.99,,,2.00,ADS-WS1 bash script,2013-06-22 22:45:00,
2013-06-22 18:50:00,74.4,68.0,30.03,NW,306,1.0,-999.0,83,-99.99,,,2.00,ADS-WS1 bash script,2013-06-22 22:50:00,
2013-06-22 18:55:00,74.5,68.0,30.03,WNW,290,3.0,-999.0,82,-99.99,,,2.00,ADS-WS1 bash script,2013-06-22 22:55:00,
2013-06-22 19:00:00,74.5,68.0,30.03,West,268,1.0,-999.0,82,-99.99,,,2.00,ADS-WS1 bash script,2013-06-22 23:00:00,
2013-06-22 19:10:00,74.4,68.0,30.02,West,275,2.0,-999.0,81,-99.99,,,2.00,ADS-WS1 bash script,2013-06-22 23:10:00,
2013-06-22 19:15:00,74.4,67.0,30.02,West,268,2.0,-999.0,80,-99.99,,,2.00,ADS-WS1 bash script,2013-06-22 23:15:00,
2013-06-22 19:20:00,74.2,68.0,30.02,SW,234,2.0,-999.0,81,-99.99,,,2.00,ADS-WS1 bash script,2013-06-22 23:20:00,
2013-06-22 19:25:00,74.2,68.0,30.02,West,268,4.0,-999.0,81,-99.99,,,2.00,ADS-WS1 bash script,2013-06-22 23:25:00,
2013-06-22 19:30:00,74.2,68.0,30.02,WSW,256,3.0,-999.0,81,-99.99,,,2.00,ADS-WS1 bash script,2013-06-22 23:30:00,
2013-06-22 19:35:00,74.2,68.0,30.03,WSW,251,1.0,-999.0,82,-99.99,,,2.00,ADS-WS1 bash script,2013-06-22 23:35:00,
2013-06-22 19:45:00,74.2,68.0,30.02,South,179,0.0,-999.0,82,-99.99,,,2.00,ADS-WS1 bash script,2013-06-22 23:45:00,
2013-06-22 19:50:00,74.4,68.0,30.02,WSW,237,2.0,-999.0,83,-99.99,,,2.00,ADS-WS1 bash script,2013-06-22 23:50:00,
2013-06-22 19:55:00,74.4,68.0,30.02,SW,224,4.0,-999.0,83,-99.99,,,2.00,ADS-WS1 bash script,2013-06-22 23:55:00,
2013-06-22 20:00:00,74.4,68.0,30.02,WNW,296,1.0,-999.0,82,-99.99,,,2.00,ADS-WS1 bash script,2013-06-23 00:00:00,
2013-06-22 20:05:00,74.5,68.0,30.02,WNW,296,1.0,-999.0,82,-99.99,,,2.00,ADS-WS1 bash script,2013-06-23 00:05:00,
2013-06-22 20:10:00,74.5,68.0,30.02,NW,313,2.0,-999.0,81,-99.99,,,2.00,ADS-WS1 bash script,2013-06-23 00:10:00,
2013-06-22 20:15:00,74.5,67.0,30.02,West,268,5.0,-999.0,80,-99.99,,,2.00,ADS-WS1 bash script,2013-06-23 00:15:00,
2013-06-22 20:20:00,74.7,68.0,30.02,West,265,2.0,-999.0,80,-99.99,,,2.00,ADS-WS1 bash script,2013-06-23 00:20:00,
2013-06-22 20:25:00,74.7,68.0,30.02,NW,317,1.0,-999.0,80,-99.99,,,2.00,ADS-WS1 bash script,2013-06-23 00:25:00,
2013-06-22 20:30:00,74.7,68.0,30.03,NW,313,1.0,-999.0,80,-99.99,,,2.00,ADS-WS1 bash script,2013-06-23 00:30:00,
2013-06-22 20:35:00,74.7,68.0,30.03,West,268,1.0,-999.0,80,-99.99,,,2.00,ADS-WS1 bash script,2013-06-23 00:35:00,
2013-06-22 20:40:00,74.7,68.0,30.03,SW,235,1.0,-999.0,79,-99.99,,,2.00,ADS-WS1 bash script,2013-06-23 00:40:00,
2013-06-22 20:50:00,74.7,68.0,30.03,WNW,293,1.0,-999.0,80,-99.99,,,2.00,ADS-WS1 bash script,2013-06-23 00:50:00,
2013-06-22 20:55:00,74.7,68.0,30.04,West,261,4.0,-999.0,79,-99.99,,,2.00,ADS-WS1 bash script,2013-06-23 00:55:00,
2013-06-22 21:00:00,74.9,68.0,30.04,West,268,1.0,-999.0,79,-99.99,,,2.00,ADS-WS1 bash script,2013-06-23 01:00:00,
2013-06-22 21:05:00,74.7,68.0,30.04,West,262,0.0,-999.0,79,-99.99,,,2.00,ADS-WS1 bash script,2013-06-23 01:05:00,
2013-06-22 21:10:00,74.7,68.0,30.04,West,268,1.0,-999.0,79,-99.99,,,2.00,ADS-WS1 bash script,2013-06-23 01:10:00,
2013-06-22 21:15:00,74.7,68.0,30.04,WNW,296,0.0,-999.0,79,-99.99,,,2.00,ADS-WS1 bash script,2013-06-23 01:15:00,
2013-06-22 21:20:00,74.7,68.0,30.04,West,268,1.0,-999.0,79,-99.99,,,2.00,ADS-WS1 bash script,2013-06-23 01:20:00,
2013-06-22 21:30:00,74.5,67.0,30.04,South,191,2.0,-999.0,79,-99.99,,,2.00,ADS-WS1 bash script,2013-06-23 01:30:00,
2013-06-22 21:40:00,74.5,67.0,30.04,WNW,290,2.0,-999.0,80,-99.99,,,2.00,ADS-WS1 bash script,2013-06-23 01:40:00,
2013-06-22 21:50:00,74.5,67.0,30.04,West,268,2.0,-999.0,80,-99.99,,,2.00,ADS-WS1 bash script,2013-06-23 01:50:00,
2013-06-22 21:55:00,74.5,68.0,30.04,NNW,328,0.0,-999.0,81,-99.99,,,2.00,ADS-WS1 bash script,2013-06-23 01:55:00,
2013-06-22 22:00:00,74.4,68.0,30.05,SSW,211,2.0,-999.0,81,-99.99,,,2.00,ADS-WS1 bash script,2013-06-23 02:00:00,
2013-06-22 22:05:00,74.5,68.0,30.05,NW,313,1.0,-999.0,81,-99.99,,,2.00,ADS-WS1 bash script,2013-06-23 02:05:00,
2013-06-22 22:10:00,74.5,68.0,30.06,WSW,241,3.0,-999.0,82,-99.99,,,2.00,ADS-WS1 bash script,2013-06-23 02:10:00,
2013-06-22 22:20:00,74.5,68.0,30.06,SW,217,3.0,-999.0,82,-99.99,,,2.00,ADS-WS1 bash script,2013-06-23 02:20:00,
2013-06-22 22:25:00,74.5,68.0,30.07,SSW,200,2.0,-999.0,82,-99.99,,,2.00,ADS-WS1 bash script,2013-06-23 02:25:00,
2013-06-22 22:35:00,74.9,69.0,30.07,WSW,254,0.0,-999.0,82,-99.99,,,2.00,ADS-WS1 bash script,2013-06-23 02:35:00,
2013-06-22 22:40:00,74.9,69.0,30.07,NW,313,0.0,-999.0,82,-99.99,,,2.00,ADS-WS1 bash script,2013-06-23 02:40:00,
2013-06-22 22:45:00,74.9,69.0,30.07,WSW,256,2.0,-999.0,83,-99.99,,,2.00,ADS-WS1 bash script,2013-06-23 02:45:00,
2013-06-22 22:50:00,74.9,69.0,30.07,West,268,0.0,-999.0,83,-99.99,,,2.00,ADS-WS1 bash script,2013-06-23 02:50:00,
2013-06-22 23:00:00,74.9,70.0,30.07,West,259,3.0,-999.0,84,-99.99,,,2.00,ADS-WS1 bash script,2013-06-23 03:00:00,
2013-06-22 23:05:00,74.9,70.0,30.06,WNW,302,4.0,-999.0,84,-99.99,,,2.00,ADS-WS1 bash script,2013-06-23 03:05:00,
2013-06-22 23:10:00,74.7,70.0,30.06,WSW,245,4.0,-999.0,84,-99.99,,,2.00,ADS-WS1 bash script,2013-06-23 03:10:00,
2013-06-22 23:15:00,74.5,69.0,30.06,West,261,2.0,-999.0,84,-99.99,,,2.00,ADS-WS1 bash script,2013-06-23 03:15:00,
2013-06-22 23:25:00,74.5,69.0,30.05,West,268,0.0,-999.0,84,-99.99,,,2.00,ADS-WS1 bash script,2013-06-23 03:25:00,
2013-06-22 23:30:00,74.4,69.0,30.06,West,268,3.0,-999.0,84,-99.99,,,2.00,ADS-WS1 bash script,2013-06-23 03:30:00,
2013-06-22 23:35:00,74.4,69.0,30.06,West,278,0.0,-999.0,84,-99.99,,,2.00,ADS-WS1 bash script,2013-06-23 03:35:00,
2013-06-22 23:40:00,74.2,69.0,30.05,West,261,2.0,-999.0,85,-99.99,,,2.00,ADS-WS1 bash script,2013-06-23 03:40:00,
2013-06-22 23:45:00,74.2,69.0,30.05,West,265,2.0,-999.0,85,-99.99,,,2.00,ADS-WS1 bash script,2013-06-23 03:45:00,
2013-06-22 23:50:00,74.2,69.0,30.05,WNW,287,2.0,-999.0,86,-99.99,,,2.00,ADS-WS1 bash script,2013-06-23 03:50:00,
2013-06-22 23:55:00,74.0,69.0,30.05,West,261,1.0,-999.0,86,-99.99,,,2.00,ADS-WS1 bash script,2013-06-23 03:55:00,